Weather History for Memphis, TN

Change the Weather History Date:

Wednesday, February 13, 2013

  Actual Average Record
Temperature  
Mean Temperature 42 °F 45 °F  
Max Temperature 46 °F 54 °F 81 °F (1962)
Min Temperature 38 °F 36 °F -6 °F (1899)
Degree Days  
Heating Degree Days 23 20  
Month to date heating degree days 232 279  
Since 1 July heating degree days 1883 2181  
Cooling Degree Days 0 0  
Month to date cooling degree days 0 0  
Year to date cooling degree days 9 1  
Moisture  
Dew Point 38 °F    
Average Humidity 84    
Maximum Humidity 92    
Minimum Humidity 76    
Precipitation  
Precipitation 0.05 in 0.15 in 2.04 in (1950)
Month to date precipitation 1.28 1.98  
Year to date precipitation 11.00 5.96  
Snow  
Snow 0.00 in 0.00 in 2.20 in (1905)
Month to date snowfall 0.0 0.7  
Since 1 July snowfall 0.9 2.8  
Snow Depth 0.00 in    
Sea Level Pressure  
Sea Level Pressure 29.92 in    
Wind  
Wind Speed 7 mph (NNW)    
Max Wind Speed 17 mph    
Max Gust Speed 23 mph    
Visibility 6 miles    
Events Rain    
T = Trace of Precipitation, MM = Missing Value Source: NWS Daily Summary

Daily Weather History Graph

Daily Weather History Graph

Search for Another Location

Airport:

Trip Planner

Search our weather history database for the weather conditions in past years. The results will help you decide how hot, cold, wet, or windy it might be!

Date:

Astronomy

Feb. 13, 2013 Rise Set
Actual Time 6:47 AM CST 5:40 PM CST
Civil Twilight 6:21 AM CST 6:06 PM CST
Nautical Twilight 5:52 AM CST 6:36 PM CST
Astronomical Twilight 5:22 AM CST 7:06 PM CST
Moon 8:27 AM CST (2/13) 9:31 PM CST (2/13)
Length of Visible Light 11h 45m
Length of Day
10h 53m
Waxing Crescent, 14% of the Moon is Illuminated
Feb 13
Waxing Crescent
Feb 17
First Quarter
Feb 25
Full
Mar 4
Last Quarter
Mar 11
New

Hourly Weather History & Observations

Time (CST) Temp. Windchill Dew Point Humidity Pressure Visibility Wind Dir Wind Speed Gust Speed Precip Events Conditions
12:06 AM 44.6 °F 40.7 °F 39.2 °F 81% 29.81 in 6.0 mi NE 6.9 mph - 0.00 in   Light Drizzle
12:25 AM 44.6 °F 43.1 °F 41.0 °F 87% 29.82 in 2.5 mi North 3.5 mph - 0.00 in Rain Light Rain
12:28 AM 44.6 °F 43.1 °F 41.0 °F 87% 29.81 in 2.5 mi North 3.5 mph - 0.00 in Rain Light Rain
12:30 AM 44.6 °F 42.2 °F 41.0 °F 87% 29.81 in 2.5 mi North 4.6 mph - 0.00 in Rain Light Rain
12:40 AM 44.6 °F 43.1 °F 41.0 °F 87% 29.81 in 1.8 mi North 3.5 mph - 0.00 in Rain Light Rain
12:54 AM 44.1 °F 42.5 °F 42.1 °F 93% 29.81 in 1.5 mi North 3.5 mph - 0.01 in Rain Light Rain
1:11 AM 44.6 °F 43.1 °F 42.8 °F 93% 29.80 in 1.0 mi North 3.5 mph - 0.01 in Rain Light Rain
1:34 AM 44.6 °F 42.2 °F 42.8 °F 93% 29.79 in 1.0 mi North 4.6 mph - 0.01 in   Light Drizzle
1:54 AM 44.1 °F 41.5 °F 42.1 °F 93% 29.79 in 1.0 mi NNW 4.6 mph - 0.01 in   Light Drizzle
2:21 AM 42.8 °F 36.6 °F 39.2 °F 87% 29.79 in 1.5 mi North 11.5 mph - 0.01 in   Overcast
2:31 AM 42.8 °F 38.0 °F 41.0 °F 93% 29.80 in 1.5 mi North 8.1 mph - 0.01 in   Light Drizzle
2:54 AM 42.1 °F 36.6 °F 39.9 °F 92% 29.78 in 1.0 mi North 9.2 mph - 0.02 in   Light Drizzle
3:14 AM 42.8 °F 36.6 °F 39.2 °F 87% 29.79 in 2.0 mi North 11.5 mph - 0.00 in   Light Drizzle
3:54 AM 42.1 °F 35.7 °F 39.0 °F 89% 29.80 in 2.0 mi NNW 11.5 mph - 0.00 in Rain Light Rain
4:54 AM 41.0 °F 35.2 °F 39.0 °F 93% 29.83 in 2.5 mi North 9.2 mph 18.4 mph 0.00 in   Light Drizzle
5:20 AM 39.2 °F 30.8 °F 37.4 °F 93% 29.85 in 3.0 mi North 15.0 mph 19.6 mph 0.00 in   Light Drizzle
5:49 AM 39.2 °F 32.0 °F 37.4 °F 93% 29.86 in 5.0 mi NNW 11.5 mph - 0.00 in   Light Drizzle
5:54 AM 39.9 °F 32.9 °F 37.0 °F 89% 29.86 in 5.0 mi NNW 11.5 mph - 0.00 in   Light Drizzle
6:37 AM 39.2 °F 32.0 °F 37.4 °F 93% 29.88 in 4.0 mi NNW 11.5 mph 17.3 mph 0.00 in Rain Light Rain
6:54 AM 39.9 °F 34.5 °F 37.0 °F 89% 29.89 in 3.0 mi North 8.1 mph - 0.01 in Rain Light Rain
7:08 AM 39.2 °F 33.6 °F 37.4 °F 93% 29.89 in 5.0 mi North 8.1 mph - 0.00 in Rain Light Rain
7:16 AM 39.2 °F 32.5 °F 37.4 °F 93% 29.90 in 6.0 mi North 10.4 mph 17.3 mph 0.00 in Rain Light Rain
7:54 AM 39.9 °F 35.1 °F 37.0 °F 89% 29.93 in 7.0 mi NNW 6.9 mph - 0.00 in   Overcast
8:12 AM 39.2 °F 33.6 °F 35.6 °F 87% 29.94 in 10.0 mi North 8.1 mph - N/A   Overcast
8:54 AM 39.9 °F 33.9 °F 36.0 °F 86% 29.96 in 7.0 mi NNW 9.2 mph - N/A   Overcast
9:34 AM 41.0 °F 36.4 °F 35.6 °F 81% 29.96 in 6.0 mi North 6.9 mph - N/A   Haze
9:42 AM 41.0 °F 36.4 °F 35.6 °F 81% 29.96 in 6.0 mi Variable 6.9 mph - N/A   Haze
9:54 AM 42.1 °F 37.7 °F 37.0 °F 82% 29.97 in 6.0 mi NW 6.9 mph - N/A   Haze
9:57 AM 42.8 °F 38.6 °F 37.4 °F 81% 29.97 in 7.0 mi NW 6.9 mph - N/A   Overcast
10:54 AM 41.0 °F 34.7 °F 36.0 °F 82% 30.01 in 9.0 mi NW 10.4 mph - N/A   Overcast
11:54 AM 42.1 °F 36.6 °F 36.0 °F 79% 30.02 in 9.0 mi NW 9.2 mph - N/A   Overcast
12:02 PM 42.8 °F 37.5 °F 35.6 °F 76% 30.01 in 9.0 mi NW 9.2 mph - N/A   Overcast
12:32 PM 42.8 °F 36.6 °F 37.4 °F 81% 30.01 in 10.0 mi NW 11.5 mph - N/A   Overcast
12:54 PM 42.1 °F 36.1 °F 37.0 °F 82% 30.01 in 10.0 mi NW 10.4 mph - N/A   Overcast
1:43 PM 42.8 °F - 37.4 °F 81% 29.98 in 10.0 mi Calm Calm - 0.00 in   Overcast
1:54 PM 44.1 °F 42.5 °F 37.9 °F 79% 29.99 in 10.0 mi Variable 3.5 mph - 0.00 in   Overcast
2:54 PM 45.0 °F - 37.0 °F 74% 29.97 in 10.0 mi Calm Calm - N/A   Overcast
3:54 PM 45.0 °F 43.5 °F 37.0 °F 74% 29.98 in 10.0 mi West 3.5 mph - N/A   Overcast
4:54 PM 45.0 °F 42.6 °F 37.0 °F 74% 29.98 in 10.0 mi West 4.6 mph - N/A   Overcast
5:54 PM 43.0 °F 40.3 °F 36.0 °F 76% 29.99 in 10.0 mi SW 4.6 mph - N/A   Mostly Cloudy
6:39 PM 41.0 °F 37.1 °F 35.6 °F 81% 30.00 in 10.0 mi SSW 5.8 mph - N/A   Scattered Clouds
6:54 PM 39.9 °F 35.8 °F 35.1 °F 83% 30.00 in 10.0 mi South 5.8 mph - N/A   Partly Cloudy
7:54 PM 41.0 °F 36.4 °F 36.0 °F 82% 30.01 in 10.0 mi South 6.9 mph - N/A   Partly Cloudy
8:54 PM 39.9 °F 35.1 °F 36.0 °F 86% 30.01 in 10.0 mi SSW 6.9 mph - N/A   Clear
9:54 PM 39.0 °F 32.8 °F 36.0 °F 89% 30.02 in 10.0 mi SSW 9.2 mph - N/A   Clear
10:54 PM 39.0 °F 32.8 °F 35.1 °F 86% 30.03 in 10.0 mi SSW 9.2 mph - N/A   Clear
11:54 PM 39.0 °F 34.0 °F 35.1 °F 86% 30.03 in 10.0 mi SSW 6.9 mph - N/A   Clear